Temp
9 9 9 9 9 9 9 9 9 9 9 9 9 9 8 8 8 8 8 8 8 8 8 8 8 8 8 8 8 7 8 8 8 8 8 8 8 9 9 8 8 8 8
9 9 9 9 9 9 9 9 9 9 9 9 9 9 8 8 9 8 8 8 8 8 8 8 8 8 8 8 8 8 8 8 8 8 8 8 9 9 9 9 8 8 8
9 9 9 9 9 9 9 9 9 9 9 9 9 9 9 9 9 8 8 8 8 8 8 8 8 8 8 8 8 8 8 8 8 8 8 8 9 9 9 9 9 8 9
9 9 9 9 9 9 9 9 9 9 9 9 9 9 9 9 8 8 8 8 8 8 8 8 8 8 8 8 9 9 8 8 8 8 8 8 8 9 9 9 9 8 9
9 9 9 9 9 9 9 9 9 9 9 9 9 9 9 8 9 8 8 8 8 8 8 8 8 8 8 8 9 9 9 8 9 8 8 9 8 9 9 9 9 9 8
10 10 10 10 9 9 9 9 9 9 9 9 9 9 9 9 9 9 9 8 8 8 8 8 8 8 9 9 9 9 9 9 8 8 8 9 9 9 9 9 9 9 8
10 10 10 10 10 10 10 9 9 9 9 9 9 9 9 9 9 9 9 9 8 8 8 8 9 9 9 9 9 9 9 9 9 8 8 8 9 9 9 9 9 8 8
10 10 10 10 10 10 10 10 10 10 10 10 10 10 9 9 9 9 9 9 9 9 9 9 9 9 9 9 9 9 9 9 9 9 8 8 9 9 8 10 9 8 8
10 10 10 10 10 10 10 10 10 10 10 10 10 10 10 10 9 9 9 9 9 9 9 9 9 9 9 9 9 9 9 9 9 8 8 8 8 9 9 9 9 9 8
10 10 10 10 10 10 10 10 10 10 10 10 10 10 9 9 9 9 9 9 9 9 9 9 9 9 8 8 9 9 9 9 9 8 8 8 8 9 10 9 9 9 8
11 10 10 10 10 10 10 10 10 10 10 9 9 10 9 9 9 9 9 9 9 9 9 9 9 8 8 8 9 9 9 9 9 9 9 8 8 9 9 9 9 9 9
11 10 10 10 10 10 10 10 10 10 10 10 10 10 10 9 9 8 9 9 9 8 8 9 9 9 8 8 8 8 9 9 9 9 9 9 8 8 9 9 9 9 9
11 11 11 11 10 10 10 10 10 10 10 10 10 10 9 9 9 9 9 9 9 8 8 8 8 9 8 8 8 8 8 9 9 8 8 8 8 8 8 9 9 9 9
12 12 12 11 10 10 10 9 9 10 10 10 10 10 10 9 9 9 8 8 9 8 8 8 8 8 8 8 8 8 8 8 8 9 8 8 8 9 9 8 9 9 9
13 13 13 11 11 10 11 10 10 10 10 10 9 9 10 9 9 8 9 9 9 9 8 8 8 8 8 8 8 8 8 8 8 8 8 8 8 8 8 9 9 9 9
14 14 13 12 12 11 11 11 10 10 11 10 10 10 10 10 9 9 9 8 8 8 8 8 8 8 8 8 8 8 8 8 7 8 8 8 8 8 8 8 9 9 9
14 13 13 13 12 11 11 11 11 11 10 10 10 9 9 9 9 9 9 8 8 8 8 8 8 8 8 8 8 7 8 8 8 8 8 8 8 8 8 8 8 8 8
14 13 12 12 11 11 11 11 10 10 10 10 9 9 9 9 9 9 8 8 8 8 8 7 7 7 7 7 8 8 8 8 8 8 8 8 8 7 8 8 8 8 8
13 13 12 11 11 11 11 11 11 10 10 10 9 9 9 9 9 9 8 8 8 8 8 8 8 8 8 8 8 8 8 8 8 8 8 8 8 8 7 8 8 8 8
13 12 12 12 11 10 10 10 10 10 9 9 9 9 9 9 9 9 9 9 9 8 8 8 8 9 9 9 9 9 8 8 8 8 8 8 8 8 8 8 7 7 8
13 12 12 11 11 11 11 10 10 10 10 10 10 10 10 9 9 9 9 9 9 9 9 9 9 8 8 9 9 9 8 8 8 8 8 8 8 8 7 8 8 7 7
13 12 13 12 12 11 11 11 11 12 12 12 11 11 10 10 10 10 9 9 9 9 10 9 9 9 8 7 7 9 9 7 7 7 7 7 8 8 7 7 7 7 7
13 13 13 12 12 11 11 11 11 11 12 12 12 11 11 11 11 11 11 11 11 10 10 9 9 8 8 8 7 7 8 8 8 7 7 7 7 7 7 7 8 8 8
14 14 13 12 11 11 11 11 11 11 11 12 12 12 12 12 11 11 11 11 11 10 10 9 9 8 8 7 7 7 7 7 7 8 6 6 6 7 7 7 7 7 7
14 14 13 12 12 12 11 11 11 11 11 11 11 11 11 11 11 11 10 10 9 9 9 9 8 8 8 8 7 6 6 6 6 7 7 7 6 6 6 6 7 7 7
14 13 13 12 12 11 11 11 11 11 11 11 11 11 11 10 10 10 9 9 9 8 8 8 8 7 7 7 6 6 6 6 6 6 7 7 7 7 7 6 6 6 6
Height
3186 3188 3190 3191 3192 3193 3195 3197 3200 3202 3202 3203 3205 3207 3209 3210 3211 3213 3215 3214 3216 3218 3217 3217 3216 3215 3215 3215 3213 3212 3211 3209 3207 3206 3206 3205 3203 3201 3199 3198 3197 3196 3195
3190 3191 3194 3195 3196 3197 3200 3203 3204 3204 3206 3207 3208 3210 3212 3213 3213 3216 3217 3217 3218 3219 3217 3217 3218 3217 3216 3215 3214 3213 3211 3210 3209 3208 3207 3206 3204 3201 3200 3199 3198 3198 3197
3195 3196 3198 3198 3201 3202 3203 3205 3206 3207 3209 3210 3211 3212 3214 3215 3215 3217 3218 3218 3219 3219 3219 3219 3219 3218 3217 3217 3215 3213 3211 3211 3209 3208 3207 3205 3204 3202 3200 3200 3200 3199 3199
3198 3200 3201 3202 3204 3204 3205 3207 3208 3210 3211 3212 3214 3215 3216 3217 3218 3219 3220 3220 3220 3220 3219 3220 3219 3219 3218 3217 3215 3214 3211 3210 3209 3207 3207 3206 3205 3203 3202 3200 3201 3201 3201
3200 3202 3203 3206 3206 3207 3208 3209 3211 3213 3213 3215 3216 3217 3218 3219 3219 3220 3221 3221 3221 3221 3220 3220 3220 3219 3218 3217 3215 3214 3212 3210 3209 3207 3207 3206 3205 3204 3203 3202 3202 3202 3203
3202 3204 3206 3207 3207 3209 3210 3212 3213 3215 3215 3217 3217 3219 3220 3221 3221 3221 3222 3222 3222 3221 3220 3220 3219 3219 3218 3217 3215 3214 3212 3210 3211 3211 3207 3207 3206 3205 3203 3203 3203 3204 3204
3205 3206 3208 3208 3210 3211 3213 3214 3216 3217 3218 3219 3220 3221 3222 3222 3222 3223 3223 3223 3222 3220 3220 3219 3219 3219 3218 3217 3216 3214 3212 3211 3211 3209 3209 3208 3208 3206 3205 3204 3204 3205 3205
3208 3209 3210 3210 3212 3213 3214 3215 3217 3218 3219 3219 3220 3221 3222 3222 3223 3223 3223 3222 3221 3221 3221 3220 3218 3218 3218 3216 3216 3215 3212 3212 3212 3210 3210 3210 3210 3208 3207 3206 3206 3206 3207
3210 3211 3211 3212 3214 3215 3216 3217 3218 3218 3219 3220 3220 3221 3223 3223 3224 3224 3223 3223 3222 3221 3220 3220 3218 3217 3217 3216 3216 3215 3213 3212 3212 3210 3210 3209 3209 3208 3207 3207 3207 3207 3208
3210 3211 3213 3214 3215 3216 3217 3218 3219 3219 3221 3221 3221 3223 3224 3223 3223 3222 3222 3221 3221 3220 3219 3219 3218 3217 3216 3215 3215 3215 3213 3212 3211 3211 3210 3210 3209 3208 3209 3208 3208 3208 3208
3209 3212 3213 3215 3215 3217 3218 3219 3220 3220 3221 3221 3222 3223 3223 3222 3222 3223 3222 3221 3220 3219 3218 3219 3218 3216 3215 3214 3214 3214 3214 3213 3211 3210 3209 3209 3209 3208 3209 3209 3208 3209 3208
3210 3212 3214 3214 3216 3216 3217 3218 3218 3219 3221 3221 3222 3222 3222 3221 3220 3221 3220 3221 3220 3219 3217 3217 3217 3215 3216 3214 3213 3212 3212 3212 3211 3209 3209 3208 3208 3209 3209 3209 3208 3209 3209
3211 3212 3213 3214 3215 3216 3217 3217 3217 3218 3219 3220 3221 3221 3222 3222 3221 3220 3219 3219 3219 3217 3217 3216 3215 3214 3213 3212 3212 3212 3211 3210 3210 3209 3208 3207 3207 3209 3209 3208 3208 3208 3209
3210 3212 3213 3214 3214 3216 3215 3216 3216 3217 3218 3219 3219 3219 3220 3221 3220 3219 3218 3217 3217 3217 3216 3215 3214 3212 3212 3210 3210 3209 3209 3207 3206 3207 3206 3206 3206 3206 3208 3209 3208 3208 3208
3210 3210 3212 3213 3214 3214 3215 3216 3216 3217 3217 3217 3218 3219 3219 3219 3218 3217 3217 3215 3214 3215 3214 3213 3211 3211 3209 3208 3207 3206 3206 3205 3204 3203 3204 3203 3202 3203 3204 3206 3206 3207 3207
3209 3210 3212 3212 3213 3213 3215 3215 3215 3215 3216 3216 3217 3216 3216 3217 3216 3215 3214 3212 3212 3211 3211 3210 3210 3208 3207 3205 3204 3201 3201 3203 3202 3200 3200 3200 3200 3201 3201 3203 3204 3205 3206
3209 3210 3211 3211 3212 3213 3213 3213 3213 3213 3213 3214 3215 3214 3214 3214 3214 3213 3211 3211 3209 3208 3207 3206 3205 3204 3203 3202 3200 3198 3197 3196 3197 3196 3196 3197 3197 3197 3197 3199 3200 3202 3202
3208 3209 3210 3211 3211 3211 3211 3212 3212 3212 3211 3211 3212 3212 3211 3211 3212 3211 3210 3207 3207 3205 3203 3201 3200 3199 3198 3196 3195 3193 3191 3190 3190 3191 3191 3191 3193 3194 3194 3195 3196 3197 3198
3207 3208 3210 3210 3209 3210 3211 3211 3211 3210 3210 3209 3209 3208 3208 3207 3206 3207 3206 3204 3203 3201 3199 3197 3195 3193 3191 3189 3188 3187 3186 3185 3184 3184 3185 3186 3187 3189 3190 3191 3191 3192 3194
3205 3206 3208 3209 3209 3209 3209 3210 3209 3208 3207 3207 3206 3205 3205 3204 3203 3203 3200 3199 3198 3196 3194 3191 3190 3188 3186 3184 3184 3183 3182 3180 3179 3178 3179 3180 3181 3182 3184 3186 3186 3187 3190
3203 3205 3206 3206 3207 3208 3209 3209 3208 3207 3205 3203 3202 3201 3200 3199 3199 3197 3196 3194 3192 3190 3188 3186 3185 3184 3182 3179 3179 3179 3177 3176 3175 3175 3174 3174 3175 3177 3178 3179 3181 3182 3184
3201 3203 3204 3205 3206 3207 3207 3208 3207 3205 3203 3201 3199 3197 3196 3194 3193 3192 3192 3190 3189 3187 3184 3183 3181 3180 3178 3175 3174 3174 3173 3173 3172 3171 3170 3170 3170 3170 3171 3172 3174 3176 3177
3199 3202 3204 3204 3205 3206 3207 3207 3206 3205 3202 3200 3197 3195 3193 3192 3191 3191 3190 3187 3184 3182 3180 3178 3176 3175 3175 3172 3170 3169 3168 3169 3169 3168 3167 3166 3166 3166 3166 3166 3167 3169 3171
3199 3201 3202 3203 3204 3205 3205 3205 3205 3203 3200 3198 3196 3193 3192 3191 3190 3189 3187 3185 3182 3180 3177 3175 3173 3170 3170 3169 3168 3165 3164 3162 3162 3164 3165 3163 3161 3161 3162 3162 3162 3163 3164
3197 3199 3199 3200 3203 3203 3203 3204 3203 3199 3198 3196 3195 3192 3190 3189 3187 3186 3184 3182 3180 3177 3174 3172 3170 3168 3167 3166 3165 3163 3161 3159 3157 3156 3158 3159 3159 3157 3156 3156 3156 3156 3156
3194 3195 3196 3198 3200 3201 3201 3201 3198 3197 3197 3197 3195 3191 3189 3186 3184 3182 3180 3178 3175 3172 3170 3168 3167 3165 3164 3163 3161 3159 3158 3157 3155 3153 3151 3151 3151 3153 3152 3151 3149 3148 3148
Wind_Speed
29 29 27 27 27 26 27 26 27 26 26 24 23 22 21 21 20 18 17 17 15 12 10 10 10 11 10 11 12 12 10 12 13 11 10 14 15 14 10 9 8 5 7
27 26 26 27 27 27 25 25 26 25 23 23 23 23 22 21 20 19 17 16 14 11 10 10 10 9 9 9 10 11 10 10 11 10 11 10 15 16 12 9 8 8 9
26 28 28 29 26 26 25 25 25 24 22 22 23 23 22 20 19 17 16 15 13 11 9 10 9 8 8 8 9 10 9 8 6 6 10 15 14 15 13 10 7 7 6
25 25 26 25 23 23 24 24 23 21 20 21 21 21 20 18 17 16 14 13 12 10 9 8 8 7 6 7 7 7 8 8 8 4 4 13 12 13 12 10 7 7 8
25 24 23 22 21 21 22 21 20 19 19 19 19 18 17 16 15 13 12 11 9 7 6 6 6 6 6 6 7 7 7 6 5 2 4 13 12 12 11 8 7 5 6
23 21 20 20 19 19 19 18 17 15 16 16 16 15 14 12 11 11 9 7 6 6 7 7 7 8 8 8 7 7 7 7 4 3 9 10 13 12 11 8 5 4 5
20 19 18 18 17 16 15 15 14 13 13 12 12 11 9 9 8 6 5 5 6 6 6 6 7 9 9 8 8 8 7 6 4 6 4 6 12 11 11 10 5 4 6
16 16 15 16 15 14 13 13 13 12 12 11 10 8 7 6 5 3 3 4 4 5 7 7 8 9 8 8 8 7 8 8 7 4 3 7 11 13 8 8 7 5 4
16 15 14 14 14 14 12 12 12 11 10 9 8 6 5 4 2 1 5 7 5 7 8 9 9 9 10 10 8 8 9 10 8 8 5 6 9 12 8 6 5 3 4
16 14 12 12 12 11 10 10 9 8 8 7 5 4 3 2 1 1 4 5 4 7 9 9 9 9 10 10 10 8 7 8 10 10 7 7 9 10 10 4 3 3 3
16 15 13 11 12 12 10 8 7 6 6 6 6 4 3 2 3 3 2 5 6 7 9 8 9 9 8 9 11 10 10 8 8 10 12 10 7 7 8 4 2 2 1
15 14 14 13 11 11 10 10 9 7 6 7 5 4 5 4 1 1 4 6 8 8 9 10 8 8 6 7 11 11 10 8 7 8 10 8 5 6 5 4 1 2 1
14 13 12 11 10 9 10 8 8 7 7 6 5 4 5 5 4 4 5 7 7 7 8 9 7 6 8 9 8 10 10 11 8 5 4 7 6 8 6 3 2 2 3
12 13 11 11 10 10 10 8 6 7 7 6 6 6 4 3 2 2 5 9 9 7 7 10 10 10 10 13 12 12 11 11 11 8 6 6 7 8 8 8 5 3 5
10 9 9 11 11 10 6 2 4 7 6 4 7 7 6 4 3 6 8 10 11 11 11 12 14 15 17 18 18 17 13 14 14 10 9 8 10 8 8 10 9 7 6
8 8 8 7 5 7 5 5 6 6 6 5 4 6 7 6 7 10 12 13 15 16 15 15 17 17 17 17 18 19 18 15 14 15 12 11 11 10 10 10 9 9 9
7 5 6 8 7 8 10 8 8 9 8 6 5 5 10 10 9 10 13 14 16 18 17 17 18 19 18 19 20 23 24 23 19 19 19 15 13 14 13 12 11 11 11
9 8 8 9 7 7 8 9 10 10 11 10 9 10 13 13 11 11 14 16 16 18 20 19 21 21 22 23 22 23 25 26 25 23 22 20 17 17 16 16 16 15 13
11 11 9 9 10 10 10 11 11 12 11 12 12 13 14 15 14 13 14 17 17 20 21 26 24 23 23 23 20 17 19 20 21 22 22 23 20 21 21 19 19 18 17
13 13 10 8 9 11 11 12 12 13 14 13 13 14 16 18 19 19 17 18 20 23 24 22 19 19 19 20 15 13 13 15 15 16 17 20 22 22 21 21 21 21 20
11 11 8 4 6 9 6 3 4 8 11 14 17 17 17 16 20 16 17 18 22 20 18 19 18 15 15 15 13 12 10 11 12 14 15 16 17 19 22 24 22 23 23
8 8 5 5 6 7 7 8 10 10 11 13 15 17 15 14 15 15 18 18 18 18 19 18 17 15 12 13 12 13 9 10 12 12 14 16 17 17 18 22 25 24 24
9 10 8 8 8 7 9 13 16 17 17 12 9 9 11 14 16 17 17 18 20 22 22 22 20 17 13 15 15 15 14 9 9 12 14 15 16 16 18 21 22 23 26
10 9 8 8 8 8 9 11 15 19 23 23 17 12 10 8 10 12 13 17 19 22 22 21 20 19 17 14 15 16 16 18 17 11 10 15 18 19 19 22 23 24 24
12 10 8 8 7 6 8 11 14 20 24 27 24 19 16 14 13 13 15 16 18 19 19 18 17 17 17 16 13 13 15 18 21 22 17 15 17 21 24 24 26 27 28
16 15 12 11 8 6 4 7 12 15 20 23 26 25 22 18 16 16 16 18 17 15 14 13 14 15 15 16 17 18 18 19 19 22 24 23 22 20 21 24 29 31 31
Wind_Direction
116 115 114 117 116 116 115 115 117 118 112 113 118 118 121 119 115 111 111 116 117 115 97 82 69 58 50 40 33 23 29 39 42 47 48 36 29 27 38 41 45 64 99
125 121 120 120 119 117 118 121 121 116 114 113 115 117 115 110 109 110 111 112 112 110 95 82 71 61 53 45 40 35 39 46 49 63 46 20 27 33 39 48 56 63 94
124 124 124 122 123 122 125 125 122 116 114 114 115 114 115 113 113 113 110 110 110 100 89 81 72 65 53 46 40 36 43 44 48 71 45 35 26 32 40 46 68 74 83
126 126 124 120 121 119 121 124 122 118 112 114 117 117 117 116 109 105 102 97 94 90 83 78 73 57 40 29 29 26 25 26 79 68 38 27 26 33 39 58 81 90 89
127 125 123 123 119 119 123 123 122 118 117 120 120 118 119 113 109 103 94 89 85 79 65 49 36 18 11 9 15 14 12 12 2 50 53 34 32 29 49 55 68 91 113
127 129 128 124 123 122 125 125 123 124 120 122 122 120 115 111 101 93 91 87 76 55 39 31 18 5 2 4 8 12 2 1 36 64 61 30 36 29 44 48 63 70 120
134 131 134 130 128 127 128 129 129 126 121 123 125 123 125 115 103 87 71 54 41 37 30 20 11 9 4 360 5 356 357 360 2 8 11 24 20 27 31 42 68 101 106
141 139 137 135 135 134 132 132 135 133 133 127 125 130 131 116 93 73 48 29 13 10 4 3 5 9 7 2 0 350 334 345 350 336 359 0 4 16 24 30 47 147 143
149 144 141 143 146 145 144 143 138 137 131 132 136 148 123 119 123 12 353 343 351 0 7 359 5 13 10 4 2 351 327 327 335 321 331 3 359 8 7 25 36 107 160
156 156 153 150 150 152 153 151 147 148 150 152 158 158 146 196 199 333 355 348 354 14 11 6 9 19 16 357 1 360 341 337 329 322 321 341 351 4 353 23 14 42 197
166 163 158 159 166 162 162 164 165 171 172 182 189 184 170 264 324 300 359 351 4 17 9 360 2 11 13 354 349 352 343 334 328 318 313 322 317 344 356 349 21 358 68
166 161 167 169 169 168 165 167 164 176 196 203 209 182 187 193 340 338 4 351 355 12 354 337 350 348 347 334 330 327 315 311 325 322 304 311 300 325 332 351 343 290 291
166 176 172 171 174 173 166 178 186 197 203 203 214 204 201 206 259 345 337 333 336 350 328 325 321 323 324 325 323 315 309 307 309 303 319 298 289 276 295 336 302 258 257
169 176 177 180 184 181 201 197 204 228 226 221 239 264 243 245 252 276 303 310 315 309 306 303 308 312 313 314 312 310 307 296 292 296 296 281 278 274 276 286 293 272 243
180 199 192 183 196 211 246 224 241 265 247 262 257 257 280 280 272 272 280 284 297 302 301 299 304 305 305 305 299 298 298 299 291 279 274 275 273 279 274 280 276 267 259
205 196 220 206 203 235 248 232 234 262 233 254 275 277 286 284 278 272 278 288 294 300 299 296 297 296 300 299 302 301 298 292 282 282 273 267 268 264 262 269 270 267 258
212 218 219 232 237 239 245 242 258 264 268 264 263 285 288 295 290 277 280 282 287 291 293 294 292 290 293 293 292 289 291 288 281 275 278 266 259 254 250 257 255 261 260
216 216 226 230 246 249 254 254 255 259 264 276 281 283 285 292 288 273 273 283 287 290 292 297 297 295 292 286 282 279 280 281 280 274 269 269 263 255 252 249 250 252 258
230 231 231 229 238 247 252 250 251 261 264 266 273 281 290 293 287 275 280 281 290 293 291 296 295 293 292 292 293 288 277 279 280 277 272 268 263 260 259 255 247 249 252
234 241 243 229 236 245 246 250 259 267 269 272 273 274 277 282 284 285 290 292 294 290 290 294 296 297 296 292 297 283 274 276 282 283 273 265 264 257 256 250 253 246 247
214 224 245 254 237 238 249 256 289 283 281 283 283 286 290 279 284 287 290 296 303 306 308 307 307 302 290 294 299 299 292 275 267 273 275 269 267 261 257 250 251 254 247
195 208 198 162 145 132 93 54 33 8 338 316 308 303 297 289 291 291 297 301 300 302 305 311 312 310 305 302 302 304 294 273 274 269 267 267 267 265 255 252 249 246 251
167 176 167 147 125 109 82 58 44 35 27 10 333 309 286 283 284 289 297 305 309 311 313 314 314 311 306 300 307 309 307 290 262 268 274 272 268 262 255 254 252 249 247
188 184 183 149 134 103 71 53 38 32 28 24 12 358 349 326 300 306 307 304 307 305 305 306 308 308 310 302 300 304 306 305 299 280 264 276 280 279 269 262 262 257 258
212 203 186 162 145 105 70 45 30 28 22 19 17 9 0 350 339 329 321 314 304 300 302 305 304 305 305 303 299 294 296 299 303 305 296 279 276 278 281 280 276 271 268
214 206 199 188 184 161 126 45 31 20 9 2 10 15 11 359 347 340 333 330 330 324 315 309 307 304 302 299 297 295 293 292 291 293 296 297 292 281 281 278 275 271 268